Location: Zagreb
(45.8150°N, 15.9819°E)
Time: 14:20:33
(UTC+02:00)

STARLINK-1724 - Pass Details

Date: 20 September 2020
Orbit: 378 x 381 km, 53.0° (Epoch: 20 October)

Event Time Altitude Azimuth Distance (km) Brightness Sun altitude
Exits shadow 05:41:19 11° 302° (WNW) 1,377 5.2 -11.1°
Maximum altitude 05:43:45 22° 355° (N) 905 4.8 -10.7°
Drops below altitude 10° 05:46:17 10° 48° (NE) 1,407 6.7 -10.3°
Sets 05:48:38 0° 65° (ENE) 2,261 8.6 -9.9°
